User: anonymous   Login
Location: Brighton Point
(40.6144°N, 111.7933°W)
Time: 18:11:13
(UTC+00:00)
Language:

ISS - Orbit

View from above orbital plane
View from above orbital plane
View from above satellite
View from above satellite

Ground track
Ground track

The orbit data is extracted from the following two-line orbital elements,

1 25544U 98067A   21111.52430834  .00002032  00000-0  45142-4 0  9992
2 25544  51.6448 262.9881 0002478 260.4270 210.8551 15.48914749279819
Epoch (UTC): 21 April 2021 12:35:00
Eccentricity: 0.0002478
inclination: 51.6448°
perigee height: 418 km
apogee height: 421 km
right ascension of ascending node: 262.9881°
argument of perigee: 260.4270°
revolutions per day: 15.48914749
mean anomaly at epoch: 210.8551°
orbit number at epoch: 27981

The dashed part of the orbit path shows where the satellite is in the earth's shadow,  

DLR